sat.trackr.live / text

‹ back to catalog

STARLINK-11129 [DTC]

NORAD 60038 · 2024-112A

PAYLOAD ACTIVE UNKNOWN

§ Identity

Operator
Country
US
Launch date
2024-06-08
Launch site
AFWTR
Launch vehicle
Mass (kg)
RCS (m²)

Purposes: comms

External: N2YO · Heavens-Above · Gunter

§ Orbital elements

Epoch: 2026-05-25T00:15:36.905184Z

Period
91.74 min
Inclination
53.1601°
Eccentricity
0.0001116
Mean motion
15.69708685 rev/d
Perigee alt
359.0 km
Apogee alt
360.5 km
Semi-major
6,737.9 km
B*
2.3335e-6
RAAN
250.3629°
Arg perigee
77.8885°
Mean anomaly
282.2258°
Rev number
11,296

§ Raw data

STARLINK-11129 [DTC]1 60038U 24112A   26145.01084381 -.00000306  00000+0  23335-5 0  99902 60038  53.1601 250.3629 0001116  77.8885 282.2258 15.69708685112967

JSON: /api/v1/satellites/60038 · /tle

For live sub-satellite position, see the globe view (requires WebGL).

§ Visibility from observer

Set your observer location to see the next 7 days of passes ≥ 10°. The values pass through the URL so the page stays shareable.

No JS? Fill the form by hand. The geolocation button needs JavaScript.